DECAYED

NOAA 16 DEB, 41522 (Decayed)

Orbit data source: Space-Track

NOAA 16 DEB, 41522 was space debris in SSO originally from a launch on Thu, 21 Sep 2000 UTC launched from the Air Force Western Test Range (AFWTR). Debris objects in space refer to the collection of defunct objects orbiting the Earth. Examples of debris include non-operational satellites, rocket bodies, and fragments generated from explosions, collisions, or faulty payload assembly.

Not visible in the next 10 days
Identifier
41522, 2000-055MW
Orbit
Decayed
Country
Flag of USUS
Related business
Manufacturer
Unknown
Mission
Decayed spacecraft
Bus & Motor
Unknown
Mass
Unknown
Launch date (UTC)
2000-09-21 (26 years ago)
Launch vehicle
Unknown
Launch site
Air Force Western Test Range (AFWTR)
Object type
Payload
Rocket body
Debris
Shape & HBR
Unknown shape, 0.1 m
Radar Cross Section
Small (<0.1 m²)

Expand to show TLE details & history
Last TLE update: 11 months ago

TLE from 11 months ago
0 NOAA 16 DEB
1 41522U 00055MW  25168.87131306  .02842208  00000-0  18652-1 0  9994
2 41522  98.8286 348.0283 0019380 280.5222  79.3853 15.72040039477731
Epoch: 2025-06-17T20:54Z
TLE epoch observation values (Epoch: 2025-06-17T20:54:41.448Z)
Latitude
-0.00004°
Longitude
127.99412°
Altitude
353.803 km
Speed
7.698 km/s
True Right ascension
23h 12m 06s
True Declination
0° 00' 00"
Sunlit
Object was in daylight at epoch
Visualization orbit readout
Latitude
Unknown
Longitude
Unknown
Altitude
Unknown
Speed
Unknown
Apparent Right ascension
Unknown
Apparent Declination
Unknown
Sunlit
N/A
Visualization observer readout
Local Sidereal Time
23:28:45
Azimuth
Unknown
Elevation
Unknown
Doppler factor
Unknown
Orbital elements
Apogee altitude
363.071 km
Perigee altitude
336.993 km
Semi-major axis
6,728.169 km
Eccentricity
0.00194
Inclination
98.8286°
RAAN
348.0283°
Arg. of periapsis
280.5222°
True anomaly
79.60368°
Mean anomaly
79.3853°
Eccentric anomaly
79.49448°
Mean motion
3.93276 °/min
Orbital period
91.54 mins
BSTAR
0.018652
Loading maneuver chart data...
Computing Atmospheric mass density...
Loading historical data...
Loading historical data...
Loading historical data...
Loading historical data...
Loading historical data...
Loading historical data...
Loading historical data...

Documentation

Showing up to 5 results
|